QPF
0.00 0.00 0.00 0.00 0.00 0.00 0.00 0.00 0.00 0.00 0.00 0.00 0.00 0.00 0.00 0.00 0.00 0.00 0.00 0.00 0.00 0.00 0.00 0.00 0.00 0.00 0.00 0.00 0.00 0.00 0.00 0.00 0.00 0.00 0.00 0.00 0.00 0.00 0.00 0.00 0.00 0.00 0.00 0.00
0.00 0.00 0.00 0.00 0.00 0.00 0.00 0.00 0.00 0.00 0.00 0.00 0.00 0.00 0.00 0.00 0.00 0.00 0.00 0.00 0.00 0.00 0.00 0.00 0.00 0.00 0.00 0.00 0.00 0.00 0.00 0.00 0.00 0.00 0.00 0.00 0.00 0.00 0.00 0.00 0.00 0.00 0.00 0.00
0.00 0.00 0.00 0.00 0.00 0.00 0.00 0.00 0.00 0.00 0.00 0.00 0.00 0.00 0.00 0.00 0.00 0.00 0.00 0.00 0.00 0.00 0.00 0.00 0.00 0.00 0.00 0.00 0.00 0.00 0.00 0.00 0.00 0.00 0.00 0.00 0.00 0.00 0.00 0.00 0.00 0.00 0.00 0.00
0.00 0.00 0.00 0.00 0.00 0.00 0.00 0.00 0.00 0.00 0.00 0.00 0.00 0.00 0.00 0.00 0.00 0.00 0.00 0.00 0.00 0.00 0.00 0.00 0.00 0.00 0.00 0.00 0.00 0.00 0.00 0.00 0.00 0.00 0.00 0.00 0.00 0.00 0.00 0.00 0.00 0.00 0.00 0.00
0.00 0.00 0.00 0.00 0.00 0.00 0.00 0.00 0.00 0.00 0.00 0.00 0.00 0.00 0.00 0.00 0.00 0.00 0.00 0.00 0.00 0.00 0.00 0.00 0.00 0.00 0.00 0.00 0.00 0.00 0.00 0.00 0.00 0.00 0.00 0.00 0.00 0.00 0.00 0.00 0.00 0.00 0.00 0.00
0.00 0.00 0.00 0.00 0.00 0.00 0.00 0.00 0.00 0.00 0.00 0.00 0.00 0.00 0.00 0.00 0.00 0.00 0.00 0.00 0.00 0.00 0.00 0.00 0.00 0.00 0.00 0.00 0.00 0.00 0.00 0.00 0.00 0.00 0.00 0.00 0.00 0.00 0.00 0.00 0.00 0.00 0.00 0.00
0.00 0.00 0.00 0.00 0.00 0.00 0.00 0.00 0.00 0.00 0.00 0.00 0.00 0.00 0.00 0.00 0.00 0.00 0.00 0.00 0.00 0.00 0.00 0.00 0.00 0.00 0.00 0.00 0.00 0.00 0.00 0.00 0.00 0.00 0.00 0.00 0.00 0.00 0.00 0.00 0.00 0.00 0.00 0.00
0.00 0.00 0.00 0.00 0.00 0.00 0.00 0.00 0.00 0.00 0.00 0.00 0.00 0.00 0.00 0.00 0.00 0.00 0.00 0.00 0.00 0.00 0.00 0.00 0.00 0.00 0.00 0.00 0.00 0.00 0.00 0.00 0.00 0.00 0.00 0.00 0.00 0.00 0.00 0.00 0.00 0.00 0.00 0.00
0.00 0.00 0.00 0.00 0.00 0.00 0.00 0.00 0.00 0.00 0.00 0.00 0.00 0.00 0.00 0.00 0.00 0.00 0.00 0.00 0.00 0.00 0.00 0.00 0.00 0.00 0.00 0.00 0.00 0.00 0.00 0.00 0.00 0.00 0.00 0.00 0.00 0.00 0.00 0.00 0.00 0.00 0.00 0.00
0.00 0.00 0.00 0.00 0.00 0.00 0.00 0.00 0.00 0.00 0.00 0.00 0.00 0.00 0.00 0.00 0.00 0.00 0.00 0.00 0.00 0.00 0.00 0.00 0.00 0.00 0.00 0.00 0.00 0.00 0.00 0.00 0.00 0.00 0.00 0.00 0.00 0.00 0.00 0.00 0.00 0.00 0.00 0.00
0.00 0.00 0.00 0.00 0.00 0.00 0.00 0.00 0.00 0.00 0.00 0.00 0.00 0.00 0.00 0.00 0.00 0.00 0.00 0.00 0.00 0.00 0.00 0.00 0.00 0.00 0.00 0.00 0.00 0.00 0.00 0.00 0.00 0.00 0.00 0.00 0.00 0.00 0.00 0.00 0.00 0.00 0.00 0.01
0.00 0.00 0.00 0.00 0.00 0.00 0.00 0.00 0.00 0.00 0.00 0.00 0.00 0.00 0.00 0.00 0.00 0.00 0.00 0.00 0.00 0.00 0.00 0.00 0.00 0.00 0.00 0.00 0.00 0.00 0.00 0.00 0.00 0.00 0.00 0.00 0.00 0.00 0.00 0.00 0.00 0.00 0.00 0.01
0.00 0.00 0.00 0.00 0.00 0.00 0.00 0.00 0.00 0.00 0.00 0.00 0.00 0.00 0.00 0.00 0.00 0.00 0.00 0.00 0.00 0.00 0.00 0.00 0.00 0.00 0.00 0.00 0.00 0.00 0.00 0.00 0.00 0.00 0.00 0.00 0.00 0.00 0.00 0.00 0.00 0.00 0.00 0.00
0.00 0.00 0.00 0.00 0.00 0.00 0.00 0.00 0.00 0.00 0.00 0.00 0.00 0.00 0.00 0.00 0.00 0.00 0.00 0.00 0.00 0.00 0.00 0.00 0.00 0.00 0.00 0.00 0.00 0.00 0.00 0.00 0.00 0.00 0.00 0.00 0.00 0.00 0.00 0.00 0.00 0.00 0.00 0.00
0.00 0.00 0.00 0.00 0.00 0.00 0.00 0.00 0.00 0.00 0.00 0.00 0.00 0.00 0.00 0.00 0.00 0.00 0.00 0.00 0.00 0.00 0.00 0.00 0.00 0.00 0.00 0.00 0.00 0.00 0.00 0.00 0.00 0.00 0.00 0.00 0.00 0.00 0.00 0.00 0.01 0.00 0.00 0.00
0.00 0.00 0.00 0.00 0.00 0.00 0.00 0.00 0.00 0.00 0.00 0.00 0.00 0.00 0.00 0.00 0.00 0.00 0.00 0.00 0.00 0.00 0.00 0.00 0.00 0.00 0.00 0.00 0.00 0.00 0.00 0.00 0.00 0.00 0.00 0.00 0.00 0.00 0.01 0.01 0.01 0.01 0.01 0.00
0.00 0.00 0.00 0.00 0.00 0.00 0.00 0.00 0.00 0.00 0.00 0.00 0.00 0.00 0.00 0.00 0.00 0.00 0.00 0.00 0.00 0.00 0.00 0.00 0.00 0.00 0.00 0.00 0.00 0.00 0.00 0.00 0.00 0.00 0.00 0.00 0.01 0.01 0.01 0.01 0.01 0.01 0.00 0.00
0.00 0.00 0.00 0.00 0.00 0.00 0.00 0.00 0.00 0.00 0.00 0.00 0.00 0.00 0.00 0.00 0.00 0.00 0.00 0.00 0.00 0.00 0.00 0.00 0.00 0.00 0.00 0.00 0.00 0.00 0.00 0.00 0.00 0.00 0.01 0.01 0.01 0.01 0.01 0.01 0.01 0.01 0.00 0.00
0.00 0.00 0.00 0.00 0.00 0.00 0.00 0.00 0.00 0.00 0.00 0.00 0.00 0.00 0.00 0.00 0.00 0.00 0.00 0.00 0.00 0.00 0.00 0.00 0.00 0.00 0.00 0.00 0.00 0.00 0.00 0.00 0.01 0.01 0.01 0.01 0.01 0.01 0.01 0.01 0.01 0.01 0.01 0.01
0.00 0.00 0.00 0.00 0.00 0.00 0.00 0.00 0.00 0.00 0.00 0.00 0.00 0.00 0.00 0.00 0.00 0.00 0.00 0.00 0.00 0.00 0.00 0.00 0.00 0.00 0.00 0.00 0.00 0.00 0.01 0.01 0.01 0.01 0.01 0.01 0.01 0.01 0.01 0.01 0.01 0.01 0.01 0.01
0.00 0.00 0.00 0.00 0.00 0.00 0.00 0.00 0.00 0.00 0.00 0.00 0.00 0.00 0.00 0.00 0.00 0.00 0.00 0.00 0.00 0.00 0.00 0.00 0.00 0.00 0.00 0.00 0.01 0.01 0.01 0.01 0.01 0.01 0.01 0.01 0.01 0.01 0.01 0.01 0.01 0.01 0.01 0.01
0.00 0.00 0.00 0.00 0.00 0.00 0.00 0.00 0.00 0.00 0.00 0.00 0.00 0.00 0.00 0.00 0.00 0.00 0.00 0.00 0.00 0.00 0.00 0.00 0.00 0.00 0.00 0.01 0.01 0.01 0.01 0.01 0.01 0.01 0.01 0.01 0.01 0.01 0.01 0.01 0.01 0.01 0.01 0.01
0.00 0.00 0.00 0.00 0.00 0.00 0.00 0.00 0.00 0.00 0.00 0.00 0.00 0.00 0.00 0.00 0.00 0.00 0.00 0.00 0.00 0.00 0.00 0.00 0.00 0.00 0.01 0.01 0.01 0.01 0.01 0.01 0.00 0.01 0.01 0.01 0.01 0.01 0.01 0.01 0.01 0.01 0.01 0.01
0.00 0.00 0.00 0.00 0.00 0.00 0.00 0.00 0.00 0.00 0.00 0.00 0.00 0.00 0.00 0.00 0.00 0.00 0.00 0.00 0.00 0.00 0.00 0.00 0.00 0.00 0.01 0.00 0.00 0.00 0.00 0.00 0.01 0.01 0.01 0.01 0.01 0.01 0.01 0.01 0.01 0.01 0.01 0.01
0.00 0.00 0.00 0.00 0.00 0.00 0.00 0.00 0.00 0.00 0.00 0.00 0.00 0.00 0.00 0.00 0.00 0.00 0.00 0.00 0.00 0.00 0.00 0.00 0.00 0.00 0.00 0.00 0.00 0.00 0.00 0.01 0.01 0.01 0.02 0.01 0.01 0.01 0.01 0.01 0.01 0.01 0.01 0.01
0.00 0.00 0.00 0.00 0.00 0.00 0.00 0.00 0.00 0.00 0.00 0.00 0.00 0.00 0.00 0.00 0.00 0.00 0.00 0.00 0.00 0.00 0.00 0.00 0.00 0.00 0.00 0.00 0.00 0.00 0.01 0.01 0.01 0.01 0.01 0.01 0.01 0.01 0.01 0.01 0.01 0.01 0.01 0.01
0.00 0.00 0.00 0.00 0.00 0.00 0.00 0.00 0.00 0.00 0.00 0.00 0.00 0.00 0.00 0.00 0.00 0.00 0.00 0.00 0.00 0.00 0.00 0.00 0.00 0.00 0.00 0.00 0.00 0.00 0.01 0.01 0.01 0.01 0.01 0.01 0.01 0.01 0.01 0.01 0.01 0.01 0.01 0.01
MSLP
1012.92 1013.20 1013.46 1013.67 1013.81 1013.85 1013.78 1013.60 1013.32 1012.96 1012.57 1012.18 1011.86 1011.65 1011.59 1011.71 1012.00 1012.46 1013.07 1013.80 1014.61 1015.46 1016.31 1017.13 1017.89 1018.58 1019.18 1019.69 1020.09 1020.40 1020.61 1020.72 1020.76 1020.73 1020.64 1020.50 1020.33 1020.14 1019.93 1019.69 1019.42 1019.12 1018.79 1018.42
1012.98 1013.13 1013.23 1013.29 1013.29 1013.23 1013.09 1012.89 1012.64 1012.35 1012.06 1011.79 1011.59 1011.48 1011.50 1011.66 1011.98 1012.44 1013.03 1013.74 1014.52 1015.35 1016.19 1017.01 1017.77 1018.47 1019.07 1019.56 1019.94 1020.21 1020.38 1020.45 1020.44 1020.37 1020.24 1020.08 1019.90 1019.69 1019.46 1019.21 1018.94 1018.62 1018.27 1017.89
1013.17 1013.18 1013.12 1013.02 1012.87 1012.69 1012.48 1012.25 1012.02 1011.80 1011.61 1011.46 1011.37 1011.38 1011.49 1011.71 1012.06 1012.53 1013.12 1013.80 1014.56 1015.36 1016.17 1016.96 1017.70 1018.36 1018.92 1019.38 1019.71 1019.93 1020.05 1020.07 1020.02 1019.91 1019.76 1019.59 1019.40 1019.19 1018.96 1018.72 1018.44 1018.12 1017.76 1017.36
1013.38 1013.25 1013.04 1012.79 1012.50 1012.21 1011.94 1011.69 1011.48 1011.33 1011.23 1011.20 1011.24 1011.36 1011.57 1011.88 1012.28 1012.77 1013.36 1014.02 1014.74 1015.49 1016.25 1016.99 1017.67 1018.27 1018.77 1019.16 1019.43 1019.59 1019.65 1019.62 1019.54 1019.40 1019.24 1019.07 1018.88 1018.68 1018.46 1018.22 1017.94 1017.62 1017.25 1016.84
1013.46 1013.21 1012.88 1012.51 1012.12 1011.76 1011.44 1011.19 1011.02 1010.94 1010.95 1011.03 1011.20 1011.44 1011.76 1012.15 1012.60 1013.12 1013.71 1014.35 1015.03 1015.73 1016.42 1017.07 1017.67 1018.19 1018.61 1018.92 1019.11 1019.21 1019.21 1019.15 1019.03 1018.88 1018.72 1018.55 1018.37 1018.18 1017.97 1017.74 1017.47 1017.14 1016.77 1016.34
1013.30 1012.97 1012.57 1012.12 1011.68 1011.29 1010.97 1010.75 1010.64 1010.65 1010.76 1010.97 1011.26 1011.62 1012.04 1012.50 1013.01 1013.56 1014.14 1014.76 1015.38 1016.01 1016.62 1017.19 1017.69 1018.11 1018.44 1018.67 1018.79 1018.82 1018.78 1018.68 1018.55 1018.39 1018.23 1018.06 1017.89 1017.71 1017.51 1017.28 1017.00 1016.67 1016.28 1015.83
1012.83 1012.49 1012.06 1011.61 1011.17 1010.80 1010.52 1010.37 1010.35 1010.46 1010.68 1011.01 1011.41 1011.87 1012.37 1012.90 1013.45 1014.02 1014.59 1015.16 1015.73 1016.29 1016.81 1017.28 1017.69 1018.02 1018.26 1018.41 1018.47 1018.45 1018.37 1018.25 1018.10 1017.94 1017.78 1017.61 1017.45 1017.27 1017.06 1016.81 1016.52 1016.17 1015.76 1015.30
1012.10 1011.78 1011.40 1010.99 1010.62 1010.32 1010.13 1010.07 1010.16 1010.37 1010.70 1011.13 1011.63 1012.17 1012.73 1013.31 1013.88 1014.44 1014.98 1015.52 1016.02 1016.50 1016.93 1017.32 1017.64 1017.89 1018.06 1018.14 1018.16 1018.10 1018.00 1017.87 1017.71 1017.54 1017.38 1017.20 1017.02 1016.83 1016.60 1016.33 1016.01 1015.64 1015.20 1014.72
1011.21 1010.96 1010.66 1010.35 1010.08 1009.90 1009.83 1009.89 1010.08 1010.39 1010.82 1011.32 1011.89 1012.48 1013.08 1013.67 1014.24 1014.78 1015.29 1015.77 1016.21 1016.61 1016.97 1017.28 1017.53 1017.71 1017.82 1017.87 1017.85 1017.78 1017.66 1017.52 1017.36 1017.18 1017.00 1016.81 1016.60 1016.37 1016.11 1015.80 1015.45 1015.04 1014.59 1014.08
1010.30 1010.15 1009.96 1009.78 1009.65 1009.61 1009.66 1009.84 1010.13 1010.54 1011.03 1011.59 1012.18 1012.79 1013.39 1013.97 1014.51 1015.02 1015.48 1015.90 1016.28 1016.62 1016.92 1017.17 1017.36 1017.50 1017.57 1017.59 1017.55 1017.47 1017.35 1017.20 1017.02 1016.83 1016.63 1016.40 1016.16 1015.88 1015.58 1015.23 1014.83 1014.40 1013.92 1013.40
1009.52 1009.48 1009.42 1009.39 1009.40 1009.49 1009.67 1009.95 1010.32 1010.79 1011.32 1011.89 1012.49 1013.09 1013.66 1014.20 1014.71 1015.16 1015.57 1015.94 1016.27 1016.55 1016.80 1017.00 1017.15 1017.26 1017.31 1017.31 1017.27 1017.17 1017.04 1016.88 1016.69 1016.48 1016.24 1015.97 1015.68 1015.36 1015.00 1014.61 1014.18 1013.72 1013.22 1012.71
1008.99 1009.05 1009.12 1009.21 1009.36 1009.56 1009.85 1010.21 1010.64 1011.14 1011.68 1012.24 1012.81 1013.37 1013.90 1014.39 1014.84 1015.25 1015.61 1015.92 1016.20 1016.45 1016.65 1016.82 1016.94 1017.02 1017.06 1017.04 1016.99 1016.88 1016.74 1016.56 1016.34 1016.10 1015.82 1015.51 1015.17 1014.80 1014.40 1013.97 1013.51 1013.03 1012.53 1012.03
1008.74 1008.88 1009.06 1009.26 1009.52 1009.82 1010.18 1010.60 1011.06 1011.56 1012.09 1012.62 1013.15 1013.65 1014.13 1014.57 1014.96 1015.32 1015.63 1015.90 1016.14 1016.34 1016.52 1016.65 1016.74 1016.80 1016.81 1016.78 1016.70 1016.58 1016.41 1016.20 1015.96 1015.68 1015.36 1015.01 1014.63 1014.22 1013.78 1013.32 1012.85 1012.37 1011.88 1011.38
1008.74 1008.96 1009.21 1009.51 1009.84 1010.22 1010.63 1011.08 1011.55 1012.04 1012.53 1013.03 1013.50 1013.95 1014.37 1014.76 1015.10 1015.41 1015.68 1015.91 1016.11 1016.28 1016.41 1016.51 1016.57 1016.59 1016.57 1016.50 1016.39 1016.24 1016.04 1015.80 1015.52 1015.20 1014.85 1014.46 1014.05 1013.61 1013.16 1012.69 1012.22 1011.74 1011.27 1010.79
1008.93 1009.20 1009.53 1009.89 1010.28 1010.71 1011.15 1011.61 1012.08 1012.54 1013.00 1013.45 1013.88 1014.28 1014.65 1014.98 1015.28 1015.55 1015.77 1015.96 1016.12 1016.24 1016.33 1016.38 1016.39 1016.36 1016.30 1016.18 1016.03 1015.83 1015.60 1015.32 1015.01 1014.66 1014.28 1013.87 1013.44 1013.00 1012.54 1012.08 1011.61 1011.15 1010.70 1010.25
1009.25 1009.57 1009.94 1010.35 1010.79 1011.25 1011.71 1012.17 1012.63 1013.07 1013.50 1013.90 1014.28 1014.64 1014.96 1015.25 1015.50 1015.72 1015.91 1016.05 1016.15 1016.22 1016.25 1016.24 1016.18 1016.09 1015.96 1015.80 1015.59 1015.35 1015.07 1014.76 1014.41 1014.04 1013.65 1013.23 1012.80 1012.36 1011.91 1011.47 1011.02 1010.59 1010.16 1009.73
1009.64 1010.01 1010.43 1010.88 1011.35 1011.83 1012.30 1012.75 1013.19 1013.61 1014.00 1014.37 1014.70 1015.01 1015.29 1015.53 1015.74 1015.91 1016.04 1016.12 1016.16 1016.16 1016.11 1016.03 1015.90 1015.74 1015.54 1015.31 1015.04 1014.76 1014.44 1014.10 1013.74 1013.35 1012.96 1012.54 1012.12 1011.70 1011.27 1010.85 1010.43 1010.02 1009.61 1009.21
1010.09 1010.51 1010.96 1011.45 1011.95 1012.43 1012.90 1013.35 1013.76 1014.15 1014.50 1014.83 1015.12 1015.38 1015.61 1015.80 1015.95 1016.06 1016.12 1016.13 1016.09 1016.01 1015.88 1015.71 1015.50 1015.27 1015.00 1014.71 1014.40 1014.07 1013.72 1013.37 1013.00 1012.61 1012.22 1011.83 1011.42 1011.02 1010.62 1010.22 1009.83 1009.44 1009.05 1008.67
1010.62 1011.08 1011.57 1012.08 1012.59 1013.08 1013.53 1013.95 1014.33 1014.67 1014.98 1015.25 1015.49 1015.70 1015.86 1015.99 1016.07 1016.11 1016.09 1016.02 1015.90 1015.73 1015.51 1015.26 1014.98 1014.67 1014.34 1014.01 1013.66 1013.31 1012.95 1012.59 1012.22 1011.86 1011.48 1011.10 1010.72 1010.34 1009.96 1009.58 1009.21 1008.84 1008.46 1008.09
1011.23 1011.73 1012.25 1012.77 1013.27 1013.74 1014.16 1014.53 1014.86 1015.14 1015.39 1015.59 1015.76 1015.90 1015.99 1016.04 1016.05 1016.00 1015.91 1015.75 1015.55 1015.29 1015.00 1014.68 1014.33 1013.98 1013.61 1013.24 1012.88 1012.52 1012.17 1011.82 1011.47 1011.12 1010.77 1010.41 1010.05 1009.68 1009.32 1008.95 1008.59 1008.23 1007.86 1007.50
1011.93 1012.46 1012.99 1013.49 1013.96 1014.37 1014.74 1015.04 1015.29 1015.50 1015.67 1015.79 1015.88 1015.94 1015.95 1015.92 1015.85 1015.72 1015.55 1015.32 1015.04 1014.72 1014.37 1014.00 1013.61 1013.23 1012.84 1012.47 1012.12 1011.77 1011.44 1011.11 1010.79 1010.46 1010.13 1009.79 1009.44 1009.09 1008.73 1008.37 1008.00 1007.64 1007.28 1006.91
1012.68 1013.21 1013.72 1014.18 1014.59 1014.93 1015.21 1015.42 1015.58 1015.70 1015.77 1015.80 1015.81 1015.78 1015.72 1015.61 1015.46 1015.27 1015.03 1014.74 1014.41 1014.05 1013.66 1013.26 1012.86 1012.47 1012.10 1011.74 1011.41 1011.09 1010.79 1010.49 1010.20 1009.90 1009.59 1009.26 1008.92 1008.57 1008.21 1007.85 1007.48 1007.11 1006.73 1006.36
1013.40 1013.91 1014.37 1014.76 1015.08 1015.33 1015.50 1015.61 1015.67 1015.68 1015.66 1015.61 1015.53 1015.42 1015.29 1015.12 1014.92 1014.67 1014.39 1014.06 1013.70 1013.32 1012.92 1012.52 1012.13 1011.76 1011.41 1011.09 1010.79 1010.51 1010.25 1009.99 1009.72 1009.44 1009.15 1008.84 1008.50 1008.15 1007.78 1007.40 1007.02 1006.63 1006.25 1005.86
1014.02 1014.47 1014.85 1015.15 1015.37 1015.51 1015.57 1015.57 1015.53 1015.44 1015.33 1015.21 1015.06 1014.90 1014.72 1014.51 1014.27 1013.99 1013.68 1013.34 1012.98 1012.60 1012.21 1011.83 1011.46 1011.12 1010.80 1010.52 1010.26 1010.02 1009.80 1009.57 1009.33 1009.08 1008.80 1008.49 1008.15 1007.80 1007.41 1007.02 1006.62 1006.22 1005.82 1005.41
1014.45 1014.82 1015.11 1015.31 1015.42 1015.44 1015.40 1015.31 1015.17 1015.01 1014.84 1014.65 1014.47 1014.27 1014.06 1013.83 1013.57 1013.29 1012.98 1012.64 1012.28 1011.92 1011.55 1011.19 1010.85 1010.54 1010.26 1010.02 1009.80 1009.59 1009.40 1009.20 1008.98 1008.74 1008.47 1008.17 1007.83 1007.46 1007.07 1006.67 1006.25 1005.83 1005.40 1004.98
1014.66 1014.94 1015.13 1015.22 1015.23 1015.16 1015.03 1014.86 1014.66 1014.45 1014.24 1014.03 1013.82 1013.61 1013.40 1013.16 1012.91 1012.63 1012.33 1012.00 1011.66 1011.30 1010.95 1010.61 1010.30 1010.01 1009.76 1009.54 1009.34 1009.16 1008.99 1008.80 1008.60 1008.37 1008.11 1007.81 1007.47 1007.09 1006.69 1006.27 1005.84 1005.40 1004.96 1004.52
1014.66 1014.84 1014.94 1014.94 1014.86 1014.72 1014.54 1014.32 1014.09 1013.86 1013.63 1013.42 1013.21 1013.01 1012.80 1012.57 1012.33 1012.06 1011.76 1011.43 1011.09 1010.74 1010.40 1010.07 1009.76 1009.48 1009.24 1009.03 1008.84 1008.68 1008.51 1008.34 1008.14 1007.92 1007.66 1007.35 1007.01 1006.63 1006.22 1005.79 1005.34 1004.89 1004.43 1003.98
Thickness
5628 5630 5631 5630 5628 5625 5619 5621 5618 5630 5636 5644 5644 5641 5639 5636 5631 5624 5615 5607 5599 5590 5581 5573 5565 5559 5552 5546 5540 5534 5527 5522 5517 5512 5508 5504 5500 5495 5491 5487 5482 5477 5473 5468
5618 5623 5621 5619 5624 5625 5623 5623 5623 5626 5630 5642 5640 5638 5632 5627 5621 5614 5606 5598 5589 5581 5572 5563 5555 5548 5541 5535 5529 5523 5517 5512 5507 5502 5498 5493 5489 5484 5480 5475 5470 5466 5460 5455
5600 5613 5608 5603 5621 5623 5623 5628 5625 5618 5627 5632 5629 5626 5621 5616 5611 5603 5596 5588 5578 5569 5560 5552 5544 5537 5530 5524 5519 5513 5507 5502 5497 5492 5487 5483 5478 5474 5468 5463 5459 5453 5447 5441
5592 5594 5581 5616 5634 5634 5629 5629 5630 5628 5627 5624 5619 5612 5610 5606 5599 5592 5585 5576 5566 5557 5548 5540 5533 5526 5520 5513 5507 5502 5496 5492 5487 5482 5477 5472 5467 5462 5457 5452 5447 5441 5434 5427
5580 5578 5590 5615 5623 5622 5617 5617 5627 5623 5619 5611 5603 5598 5593 5592 5588 5580 5571 5562 5553 5544 5535 5528 5521 5514 5508 5501 5496 5491 5486 5481 5477 5471 5466 5460 5455 5450 5446 5440 5434 5428 5421 5413
5574 5570 5573 5607 5612 5618 5612 5600 5616 5615 5607 5597 5589 5576 5577 5576 5571 5563 5555 5546 5537 5530 5522 5515 5509 5503 5496 5490 5484 5479 5476 5472 5467 5461 5455 5450 5444 5439 5434 5427 5421 5415 5408 5399
5566 5564 5578 5603 5602 5603 5585 5591 5599 5601 5596 5587 5578 5571 5566 5562 5555 5547 5538 5531 5523 5516 5508 5502 5497 5491 5484 5478 5473 5470 5466 5461 5456 5450 5444 5439 5433 5427 5420 5414 5408 5401 5394 5387
5565 5559 5571 5592 5590 5587 5587 5590 5590 5588 5584 5576 5566 5560 5554 5547 5539 5531 5522 5516 5510 5502 5496 5490 5485 5479 5473 5467 5464 5460 5455 5450 5445 5439 5433 5427 5420 5414 5406 5398 5391 5384 5377 5371
5577 5578 5589 5588 5588 5585 5584 5581 5579 5575 5571 5563 5553 5546 5539 5531 5524 5518 5510 5503 5497 5490 5484 5478 5473 5468 5461 5457 5453 5449 5444 5438 5432 5427 5420 5413 5406 5398 5391 5382 5373 5366 5358 5353
5578 5583 5582 5581 5580 5577 5575 5571 5568 5564 5558 5551 5542 5534 5526 5518 5511 5504 5497 5490 5484 5478 5472 5466 5462 5456 5451 5447 5442 5437 5431 5425 5419 5413 5407 5400 5391 5383 5374 5364 5355 5347 5341 5336
5569 5575 5573 5571 5570 5568 5563 5559 5555 5550 5545 5538 5530 5522 5514 5506 5499 5492 5485 5478 5472 5466 5460 5455 5450 5445 5440 5435 5430 5424 5418 5412 5406 5398 5392 5386 5378 5369 5359 5351 5338 5331 5326 5320
5561 5568 5563 5561 5561 5557 5551 5545 5540 5534 5528 5523 5517 5509 5502 5494 5487 5479 5472 5466 5460 5454 5448 5443 5438 5433 5428 5423 5417 5411 5405 5398 5391 5383 5376 5369 5362 5358 5351 5339 5332 5322 5314 5307
5559 5557 5552 5548 5546 5544 5538 5533 5527 5520 5514 5507 5502 5496 5489 5481 5473 5467 5460 5454 5448 5442 5437 5431 5427 5422 5416 5411 5405 5398 5390 5383 5376 5368 5361 5353 5345 5339 5336 5334 5323 5312 5304 5298
5546 5543 5537 5535 5531 5528 5523 5518 5512 5506 5499 5494 5487 5481 5473 5466 5459 5453 5447 5442 5436 5431 5425 5420 5415 5410 5404 5398 5392 5384 5376 5369 5361 5352 5344 5337 5329 5322 5315 5312 5311 5306 5298 5290
5533 5532 5527 5522 5516 5511 5506 5500 5494 5488 5483 5477 5471 5464 5457 5451 5445 5439 5435 5430 5425 5419 5414 5408 5403 5398 5391 5385 5378 5370 5362 5353 5345 5338 5330 5322 5315 5308 5302 5296 5293 5292 5290 5286
5519 5515 5511 5507 5502 5496 5491 5485 5479 5474 5468 5462 5455 5450 5444 5438 5433 5428 5423 5418 5413 5407 5401 5396 5390 5385 5379 5372 5364 5356 5348 5340 5331 5323 5316 5308 5301 5294 5289 5285 5282 5280 5279 5277
5503 5500 5498 5493 5488 5483 5478 5472 5467 5461 5454 5448 5442 5437 5431 5426 5421 5416 5412 5408 5401 5395 5389 5383 5378 5373 5366 5357 5348 5340 5333 5326 5318 5309 5300 5293 5287 5282 5278 5274 5272 5271 5271 5270
5497 5494 5490 5485 5477 5470 5463 5458 5452 5446 5440 5436 5430 5425 5419 5414 5410 5405 5400 5395 5389 5384 5378 5371 5366 5360 5352 5342 5333 5325 5317 5310 5302 5294 5288 5282 5277 5273 5269 5266 5265 5264 5266 5265
5482 5478 5473 5468 5462 5456 5449 5443 5438 5433 5428 5423 5417 5412 5407 5402 5397 5392 5387 5381 5374 5370 5368 5361 5354 5346 5337 5327 5319 5311 5303 5295 5289 5283 5277 5273 5270 5265 5261 5259 5259 5259 5259 5260
5464 5460 5455 5449 5445 5440 5434 5430 5426 5420 5416 5411 5405 5399 5394 5390 5385 5379 5374 5368 5362 5357 5354 5348 5340 5330 5321 5313 5305 5297 5289 5282 5277 5273 5268 5264 5261 5258 5256 5254 5253 5253 5254 5254
5446 5442 5438 5435 5430 5427 5422 5418 5413 5408 5403 5398 5391 5386 5381 5377 5372 5365 5360 5357 5354 5345 5339 5333 5324 5314 5305 5298 5293 5285 5278 5272 5267 5263 5260 5257 5254 5252 5250 5249 5249 5249 5250 5251
5433 5429 5426 5422 5417 5413 5409 5405 5400 5395 5390 5384 5379 5374 5369 5364 5359 5354 5348 5342 5339 5333 5325 5316 5306 5298 5291 5286 5279 5273 5267 5262 5258 5255 5252 5249 5247 5246 5245 5244 5244 5245 5246 5246
5420 5417 5413 5408 5404 5399 5395 5391 5387 5382 5377 5372 5367 5361 5356 5352 5345 5338 5337 5332 5322 5315 5307 5299 5291 5285 5279 5273 5267 5262 5257 5254 5250 5247 5245 5243 5241 5240 5240 5240 5241 5242 5242 5243
5406 5402 5397 5393 5389 5385 5380 5378 5374 5370 5365 5360 5355 5348 5342 5338 5334 5326 5319 5315 5307 5299 5291 5284 5278 5272 5267 5261 5256 5252 5248 5245 5242 5240 5238 5237 5236 5235 5235 5236 5237 5238 5239 5240
5392 5387 5383 5379 5375 5371 5369 5367 5362 5357 5352 5348 5343 5336 5329 5322 5316 5312 5304 5297 5290 5283 5277 5271 5265 5260 5255 5250 5246 5243 5240 5237 5235 5234 5233 5232 5232 5232 5232 5233 5234 5235 5237 5238
5379 5375 5372 5368 5364 5360 5357 5352 5348 5343 5339 5335 5331 5323 5315 5307 5299 5292 5286 5281 5274 5268 5263 5258 5253 5249 5244 5240 5237 5234 5232 5230 5228 5227 5226 5227 5228 5229 5230 5231 5231 5233 5235 5237
5366 5362 5359 5355 5352 5348 5343 5338 5333 5328 5322 5317 5313 5307 5298 5290 5283 5277 5271 5266 5260 5256 5251 5247 5243 5239 5235 5232 5229 5227 5225 5224 5223 5223 5224 5224 5225 5226 5227 5228 5230 5232 5233 5236